Temp
65 64 63 63 62 62 61 61 59 59 62 62 62 61 61 60 59 56 56 54 56 54 57 56 55 54 52 54 51 51 52 53 50 49 54 55 57 54 55 53 55 54 54
65 65 64 63 62 62 62 63 63 63 63 63 62 62 62 62 57 56 59 59 58 57 57 56 55 58 52 52 52 55 54 54 50 47 52 53 53 52 51 51 54 57 54
65 64 63 63 62 62 62 61 60 60 59 60 62 61 61 61 60 59 58 59 58 58 57 55 56 55 52 54 51 53 53 54 52 50 50 51 52 49 49 49 50 49 52
65 63 62 62 62 62 61 60 60 60 58 59 57 57 59 60 61 60 58 56 58 58 58 58 57 56 55 54 53 53 52 52 51 50 49 50 47 48 46 46 45 43 44
64 62 61 62 62 61 61 60 62 62 61 60 59 59 60 59 61 59 59 58 56 57 56 57 57 58 59 56 54 52 52 51 50 49 48 46 48 48 46 43 41 40 42
62 63 62 62 62 62 61 61 62 62 61 61 60 60 59 60 57 55 57 58 58 58 57 57 57 59 58 56 57 56 54 51 50 48 47 45 48 44 41 41 40 39 40
62 63 62 62 61 62 62 61 59 59 59 58 58 59 57 59 54 52 54 58 58 57 57 57 55 56 56 55 54 54 55 55 55 52 49 49 48 47 44 43 43 38 38
60 62 62 62 61 61 59 59 58 57 57 58 58 57 57 58 53 51 52 54 56 57 57 56 54 54 54 54 53 52 53 52 52 53 51 51 49 50 49 49 46 40 39
59 59 60 59 60 59 58 57 57 56 56 56 57 57 56 58 52 50 50 54 54 55 55 56 55 54 51 49 52 51 51 52 55 53 52 50 48 48 49 43 43 39 41
56 57 57 58 57 59 57 55 57 56 57 57 57 56 55 57 52 49 50 53 54 54 53 53 51 53 47 47 50 50 47 50 52 52 51 50 47 47 50 46 43 42 38
59 58 60 57 57 57 57 55 55 56 55 55 56 56 56 55 55 49 48 52 53 53 52 51 52 47 45 45 46 50 50 49 51 48 46 44 44 43 43 43 44 46 38
57 58 58 57 60 61 58 58 56 54 53 52 53 54 55 55 50 49 47 46 50 52 51 52 51 45 44 44 45 46 45 46 45 44 44 42 41 41 42 42 43 43 43
54 53 53 54 56 56 53 52 55 53 50 52 52 52 53 53 53 47 46 45 45 50 53 51 48 45 44 44 44 44 44 44 44 43 42 41 40 42 42 42 43 47 44
52 52 51 51 51 51 52 50 49 48 48 48 49 51 52 50 51 52 50 48 46 50 51 50 49 48 47 48 47 46 44 44 43 42 42 42 40 41 41 42 43 44 43
52 51 50 50 49 49 48 48 49 47 47 47 47 48 48 49 50 50 49 49 49 49 50 50 49 49 48 47 45 45 45 43 42 43 41 41 43 42 42 42 43 41 42
50 50 49 47 46 46 46 47 47 44 42 42 41 43 48 46 44 43 43 43 43 44 49 49 48 47 46 45 46 45 44 46 44 41 40 40 40 41 41 42 44 44 41
49 49 47 46 45 45 45 45 44 48 41 42 40 41 40 41 41 43 42 41 41 43 49 48 47 47 46 45 44 43 44 43 42 41 40 40 41 41 42 43 43 43 42
49 47 46 46 45 45 45 45 45 44 44 45 43 41 41 40 41 42 40 43 46 47 48 48 46 46 45 44 43 45 43 43 41 40 40 40 40 43 43 43 43 42 42
48 47 48 47 46 46 45 45 45 44 45 46 46 44 43 39 41 40 40 49 48 47 46 44 47 46 43 45 43 44 43 41 39 38 38 38 38 38 38 38 40 38 38
48 46 44 47 47 46 45 45 45 44 45 45 45 45 43 43 47 47 47 49 49 46 46 45 45 45 43 42 41 40 40 38 37 36 36 37 36 36 35 36 33 39 39
47 47 45 46 46 45 45 45 45 45 46 47 46 46 39 47 48 48 48 48 49 49 47 46 44 42 42 42 41 40 38 37 36 36 35 35 34 32 32 38 39 40 39
47 47 47 47 47 46 48 48 46 45 45 47 47 44 35 47 49 49 48 49 50 49 48 45 43 43 41 40 39 38 37 36 35 34 35 34 33 33 33 36 36 34 34
46 47 50 52 47 45 47 46 43 44 43 45 45 44 46 47 48 48 48 49 49 47 45 45 42 39 38 38 38 36 35 35 35 35 35 33 33 34 38 34 38 39 39
45 47 50 47 47 47 44 42 47 44 46 45 45 47 47 48 48 48 48 48 48 46 44 42 40 38 37 36 35 34 35 35 35 36 35 34 35 36 39 40 39 40 41
45 46 47 46 45 44 43 45 47 48 48 48 47 48 48 48 48 49 48 46 44 44 42 40 38 39 37 36 34 33 31 32 34 34 35 38 41 41 41 41 42 40 41
47 47 47 46 45 45 44 44 44 46 46 47 47 46 47 48 47 46 45 43 42 40 39 38 38 38 37 35 34 30 31 31 31 30 35 40 39 39 39 39 40 39 40
MSLP
1015.54 1015.67 1015.59 1015.60 1015.84 1015.90 1015.88 1016.07 1016.37 1016.68 1016.83 1016.98 1017.09 1017.22 1017.40 1017.58 1017.72 1017.97 1018.13 1018.34 1018.56 1018.69 1018.81 1018.99 1019.18 1019.25 1019.39 1019.56 1019.50 1019.61 1019.72 1019.81 1020.27 1020.21 1019.95 1019.83 1019.43 1019.26 1019.55 1019.22 1018.89 1018.90 1018.94
1014.95 1015.07 1015.37 1015.73 1015.66 1015.96 1015.75 1015.72 1015.90 1016.11 1016.24 1016.35 1016.57 1016.80 1017.00 1017.14 1017.25 1017.52 1017.68 1017.76 1018.01 1018.13 1018.12 1018.58 1018.67 1018.91 1019.07 1019.20 1019.26 1019.39 1019.44 1019.51 1019.95 1020.19 1020.04 1019.84 1019.80 1019.77 1019.64 1019.45 1019.13 1019.11 1019.17
1014.67 1014.93 1014.98 1015.00 1015.20 1015.64 1015.51 1015.52 1015.76 1015.78 1015.98 1016.22 1016.38 1016.43 1016.52 1016.68 1016.81 1016.94 1017.12 1017.29 1017.43 1017.53 1017.58 1017.88 1018.04 1018.28 1018.63 1018.81 1018.92 1019.07 1019.08 1019.26 1019.56 1019.82 1020.06 1019.87 1019.68 1019.75 1019.66 1019.42 1019.42 1019.39 1019.19
1014.30 1014.60 1014.93 1014.92 1014.60 1014.92 1015.10 1015.19 1015.39 1015.61 1015.74 1015.84 1016.00 1016.12 1016.14 1016.17 1016.25 1016.38 1016.56 1016.77 1016.83 1016.90 1016.98 1017.18 1017.27 1017.49 1017.73 1018.02 1018.48 1018.65 1018.75 1019.03 1019.34 1019.61 1019.88 1019.85 1019.95 1019.73 1019.81 1019.89 1019.99 1019.79 1019.57
1014.22 1014.45 1014.67 1014.69 1014.82 1014.65 1014.90 1014.97 1015.06 1015.23 1015.31 1015.46 1015.54 1015.66 1015.75 1015.82 1015.85 1015.99 1016.12 1016.22 1016.32 1016.38 1016.42 1016.49 1016.58 1016.74 1016.94 1017.35 1017.98 1018.21 1018.29 1018.70 1018.95 1019.22 1019.49 1019.63 1019.59 1019.66 1019.82 1020.01 1020.03 1020.05 1019.75
1014.10 1014.31 1014.37 1014.55 1014.62 1014.61 1014.41 1014.68 1014.75 1014.88 1014.81 1014.94 1014.89 1014.95 1015.19 1015.20 1015.21 1015.46 1015.64 1015.67 1015.66 1015.68 1015.71 1015.72 1015.82 1016.11 1016.18 1016.39 1016.99 1017.43 1017.78 1018.17 1018.36 1018.69 1018.93 1019.13 1019.03 1019.26 1019.53 1019.64 1019.90 1020.18 1020.16
1014.23 1014.31 1014.35 1014.40 1014.61 1014.46 1014.25 1014.50 1014.62 1014.55 1014.52 1014.73 1014.67 1014.64 1014.72 1014.58 1014.52 1014.67 1014.87 1015.15 1015.06 1014.97 1014.96 1015.05 1015.28 1015.50 1015.82 1016.19 1016.62 1016.98 1017.25 1017.43 1017.54 1017.81 1018.15 1018.34 1018.48 1018.58 1018.87 1019.19 1019.46 1019.81 1019.85
1014.43 1014.32 1014.36 1014.38 1014.40 1014.58 1014.48 1014.32 1014.39 1014.50 1014.47 1014.51 1014.29 1014.40 1014.46 1014.15 1014.02 1014.02 1014.22 1014.47 1014.56 1014.44 1014.42 1014.45 1014.72 1014.94 1015.20 1015.74 1016.09 1016.50 1016.73 1016.81 1016.91 1017.09 1017.27 1017.36 1017.57 1017.64 1017.90 1018.18 1018.56 1019.25 1019.26
1014.87 1014.88 1014.86 1015.07 1015.28 1015.24 1015.04 1014.90 1014.48 1014.46 1014.25 1014.07 1014.03 1014.01 1013.94 1013.61 1013.62 1013.55 1013.65 1014.11 1014.06 1013.94 1013.92 1013.99 1014.14 1014.35 1014.78 1015.21 1015.92 1016.17 1016.46 1016.41 1016.35 1016.42 1016.54 1016.47 1016.77 1017.10 1017.28 1018.09 1018.55 1019.06 1019.14
1015.66 1015.31 1014.98 1014.65 1014.98 1015.56 1015.45 1015.11 1014.67 1014.39 1014.35 1014.11 1013.82 1013.54 1013.33 1013.18 1013.13 1013.16 1013.39 1013.47 1013.47 1013.48 1013.54 1013.58 1013.70 1014.01 1014.42 1014.95 1015.57 1015.95 1016.16 1016.03 1016.09 1016.03 1016.02 1016.11 1016.37 1016.61 1016.83 1017.11 1017.58 1018.28 1018.91
1015.30 1015.57 1015.12 1014.65 1014.30 1014.80 1015.31 1014.78 1014.74 1014.38 1014.40 1014.11 1013.69 1013.18 1012.98 1012.70 1012.56 1012.56 1012.87 1013.01 1012.85 1013.03 1013.15 1013.32 1013.48 1013.84 1014.19 1014.65 1015.13 1015.54 1015.69 1015.65 1015.75 1015.91 1016.08 1016.27 1016.46 1016.56 1016.71 1016.78 1016.99 1017.24 1017.96
1015.49 1015.35 1015.08 1014.81 1014.60 1014.40 1014.33 1013.97 1014.13 1014.33 1014.14 1013.72 1013.51 1013.04 1012.45 1012.05 1012.11 1012.14 1012.28 1012.43 1012.64 1012.80 1012.64 1012.79 1013.09 1013.40 1014.09 1014.47 1014.85 1015.09 1015.19 1015.48 1015.70 1015.90 1016.14 1016.33 1016.55 1016.49 1016.25 1016.29 1016.32 1016.56 1016.68
1015.69 1015.60 1015.50 1015.20 1014.88 1014.63 1014.61 1014.37 1014.32 1014.04 1013.85 1013.80 1013.59 1013.05 1012.39 1011.79 1011.78 1011.84 1012.03 1012.38 1012.40 1012.72 1012.39 1012.50 1012.82 1013.11 1013.76 1014.42 1014.45 1014.58 1014.86 1015.15 1015.40 1015.63 1015.74 1015.88 1015.98 1015.77 1015.71 1015.74 1015.82 1015.94 1016.25
1015.49 1015.41 1015.35 1015.33 1014.98 1014.58 1014.29 1014.16 1014.02 1013.72 1013.62 1013.39 1013.34 1012.74 1011.91 1011.76 1011.43 1011.55 1011.39 1011.66 1012.13 1012.18 1012.31 1012.34 1012.54 1012.92 1013.40 1013.89 1014.09 1014.15 1014.36 1014.65 1014.85 1014.91 1015.06 1015.00 1015.23 1015.35 1015.37 1015.52 1015.80 1015.77 1016.20
1015.29 1015.26 1015.22 1015.07 1014.92 1014.68 1014.32 1014.10 1013.85 1013.36 1013.26 1013.06 1012.47 1012.51 1012.24 1011.63 1010.81 1010.77 1010.80 1010.99 1011.17 1011.60 1012.01 1012.16 1012.55 1012.77 1013.16 1013.59 1013.79 1013.77 1013.85 1014.12 1014.31 1014.29 1014.58 1014.83 1014.96 1015.00 1015.07 1015.19 1015.50 1015.84 1016.06
1015.34 1015.33 1015.20 1015.14 1014.94 1014.73 1014.45 1013.78 1012.92 1012.75 1012.67 1012.49 1012.10 1012.07 1011.09 1010.96 1010.50 1010.23 1010.53 1010.61 1010.87 1011.15 1011.64 1011.71 1012.26 1012.77 1013.03 1013.27 1013.43 1013.29 1013.36 1013.44 1013.51 1013.87 1014.19 1014.42 1014.61 1014.80 1014.94 1015.18 1015.38 1015.77 1016.09
1014.98 1014.90 1014.89 1014.82 1014.60 1014.34 1013.94 1013.67 1013.23 1011.97 1011.78 1011.61 1011.58 1011.46 1011.38 1011.16 1011.16 1010.39 1010.31 1010.53 1010.86 1011.18 1011.40 1011.73 1012.12 1012.54 1012.64 1012.87 1012.93 1012.90 1012.89 1012.81 1012.98 1013.47 1013.85 1013.97 1014.22 1014.59 1014.95 1015.17 1015.49 1016.05 1016.27
1014.66 1014.52 1014.50 1014.26 1014.12 1013.86 1013.56 1013.21 1012.82 1012.55 1012.03 1011.62 1011.07 1011.19 1010.83 1010.65 1010.62 1010.61 1010.53 1010.89 1011.24 1011.17 1011.33 1011.75 1012.10 1012.34 1012.53 1012.54 1012.42 1012.46 1012.80 1012.95 1013.26 1013.53 1013.77 1014.00 1014.23 1014.44 1014.41 1014.97 1015.52 1015.88 1016.20
1014.38 1014.22 1013.99 1013.63 1013.40 1013.15 1012.95 1012.60 1012.21 1011.96 1011.62 1011.35 1011.07 1010.75 1010.72 1010.49 1010.48 1010.70 1010.75 1010.51 1011.00 1011.20 1011.43 1011.75 1011.98 1012.07 1012.09 1012.10 1012.18 1012.45 1012.83 1013.28 1013.58 1013.96 1014.26 1014.45 1014.70 1014.97 1015.30 1015.36 1015.63 1015.96 1015.99
1014.07 1013.75 1013.53 1013.19 1012.87 1012.66 1012.43 1012.25 1011.63 1011.48 1011.36 1011.20 1010.73 1010.50 1010.51 1010.60 1010.64 1010.71 1010.66 1010.42 1011.07 1011.34 1011.42 1011.45 1011.44 1011.62 1012.03 1012.35 1012.63 1013.02 1013.44 1013.84 1014.25 1014.50 1014.78 1015.03 1015.28 1015.50 1015.87 1016.05 1016.18 1016.19 1016.08
1013.72 1013.37 1012.94 1012.74 1012.63 1012.29 1012.06 1011.80 1011.45 1011.26 1011.16 1010.88 1010.57 1010.10 1010.09 1010.44 1010.41 1010.39 1009.91 1010.69 1010.90 1010.93 1011.26 1011.51 1011.92 1012.24 1012.57 1012.88 1013.20 1013.57 1013.97 1014.39 1014.65 1014.90 1015.28 1015.59 1015.82 1016.12 1016.21 1016.15 1016.14 1016.10 1016.04
1013.49 1013.09 1012.75 1012.40 1012.03 1011.78 1011.25 1010.90 1010.82 1010.81 1010.83 1010.52 1010.15 1010.07 1010.37 1010.46 1010.27 1010.25 1010.70 1010.96 1011.20 1011.57 1011.74 1011.99 1012.49 1012.87 1013.23 1013.46 1013.72 1014.08 1014.46 1014.76 1015.02 1015.32 1015.66 1015.91 1016.10 1016.27 1016.35 1016.27 1016.16 1016.14 1016.14
1013.10 1012.80 1012.54 1011.89 1011.75 1011.64 1011.71 1011.67 1011.30 1010.67 1010.47 1010.36 1010.14 1010.21 1010.50 1010.53 1010.71 1010.83 1011.16 1011.44 1011.79 1012.10 1012.33 1012.50 1013.06 1013.68 1014.00 1014.14 1014.24 1014.40 1014.61 1014.85 1015.12 1015.49 1015.82 1016.13 1016.33 1016.35 1016.25 1016.32 1016.19 1016.10 1016.08
1012.77 1012.62 1012.18 1011.86 1012.11 1012.23 1012.19 1011.86 1011.12 1010.48 1010.14 1010.13 1010.24 1010.38 1010.77 1010.89 1011.08 1011.38 1011.82 1012.03 1012.28 1012.63 1012.91 1013.30 1013.80 1014.22 1014.58 1014.69 1014.72 1014.82 1014.85 1015.04 1015.31 1015.61 1015.92 1016.17 1016.22 1016.18 1016.11 1016.13 1016.12 1015.98 1015.84
1012.45 1012.17 1011.96 1012.21 1012.48 1012.52 1012.36 1012.07 1011.81 1011.41 1011.03 1010.77 1011.01 1011.38 1011.56 1011.89 1012.04 1012.06 1012.16 1012.46 1012.90 1013.27 1013.80 1014.19 1014.53 1014.77 1014.90 1014.94 1015.19 1015.35 1015.46 1015.44 1015.58 1015.83 1016.07 1016.07 1016.08 1016.03 1015.96 1015.84 1015.72 1015.71 1015.55
1012.02 1011.83 1012.15 1012.35 1012.57 1012.59 1012.61 1012.50 1012.57 1012.58 1012.43 1012.42 1012.51 1012.56 1012.56 1012.53 1012.24 1012.32 1012.53 1013.02 1013.56 1014.02 1014.54 1014.87 1015.06 1015.14 1015.23 1015.50 1015.72 1015.83 1015.78 1015.82 1016.07 1016.26 1016.12 1015.89 1015.89 1015.94 1015.97 1015.92 1015.73 1015.61 1015.47
Wind_Speed
6 5 6 6 6 6 6 6 6 5 6 7 7 7 8 8 7 6 6 6 6 6 5 5 6 4 4 4 3 2 3 3 3 2 1 2 2 4 5 2 3 3 1
6 6 7 5 5 6 6 6 6 7 6 6 6 6 7 8 7 7 9 7 7 6 7 5 6 4 5 5 4 4 3 3 3 4 0 1 2 2 2 1 3 3 4
4 5 5 6 5 6 6 6 5 5 4 4 4 5 6 8 8 8 7 7 7 8 7 7 7 6 6 4 4 4 3 3 3 3 3 2 3 3 2 2 3 3 3
3 5 5 6 7 7 6 5 5 5 5 5 5 5 6 6 7 8 8 7 8 8 8 9 6 7 8 6 4 5 4 4 3 3 2 3 3 1 1 1 2 1 3
4 4 5 5 5 4 5 5 5 5 5 5 5 5 5 5 5 6 6 8 8 8 7 8 8 11 12 9 6 5 5 3 3 4 3 3 2 2 3 2 2 2 3
5 7 5 5 4 6 5 5 4 5 6 6 7 6 6 5 9 10 9 8 10 10 10 9 9 15 14 16 15 10 7 5 4 4 2 3 4 3 3 3 2 1 2
4 1 2 2 4 3 3 4 5 6 4 6 6 5 7 7 11 12 13 8 9 9 10 8 7 7 10 10 9 9 11 12 9 6 5 6 4 5 4 4 3 2 4
2 1 1 0 2 5 4 2 3 3 4 5 5 6 6 7 10 11 10 6 6 9 9 9 10 10 11 10 7 6 6 6 7 5 7 6 6 5 6 5 6 4 3
6 6 6 7 8 7 7 7 5 4 4 4 5 6 6 8 10 10 3 4 5 7 7 8 9 10 10 11 7 6 6 6 5 9 11 11 8 9 7 5 3 3 2
5 4 4 6 7 11 9 7 4 2 5 5 7 6 8 8 8 8 6 3 5 5 5 6 11 10 13 12 7 6 6 5 4 4 2 1 3 5 13 7 5 3 2
1 4 3 2 4 4 4 4 5 6 6 6 6 7 7 7 7 9 9 4 4 4 5 4 5 10 11 11 9 6 7 3 4 3 2 1 1 2 4 5 6 5 4
4 5 5 5 4 5 6 6 8 6 6 6 6 8 6 6 8 7 8 10 6 6 6 5 5 11 9 9 7 9 10 6 3 3 3 2 3 4 5 5 6 6 4
5 6 5 6 6 6 5 6 7 7 4 7 6 6 7 4 3 8 6 8 8 6 3 6 8 11 8 5 8 7 6 4 4 3 4 4 4 5 3 2 3 6 5
5 6 5 5 7 6 5 4 4 5 5 4 5 6 5 4 3 4 4 3 7 7 4 4 5 6 5 4 4 4 4 4 5 4 5 4 1 2 2 2 1 1 2
4 5 6 4 6 6 6 5 5 6 5 5 4 4 4 7 5 9 8 6 6 6 5 3 2 2 2 2 3 4 4 4 5 4 4 4 4 2 2 3 3 2 2
3 3 5 4 5 5 5 7 9 11 9 13 13 9 4 12 11 8 9 7 9 11 3 3 3 3 3 3 4 4 3 6 4 3 4 4 3 3 2 2 2 2 2
6 6 4 5 5 5 5 4 5 6 11 12 11 8 10 14 17 8 7 5 6 7 2 2 2 3 3 3 4 3 2 2 3 3 4 4 3 3 4 4 5 3 2
6 9 5 5 5 5 5 5 4 5 4 5 4 6 4 6 9 6 9 8 3 2 2 3 3 3 3 4 3 3 2 3 3 3 3 3 3 4 4 4 5 5 6
5 5 5 5 4 6 5 6 4 4 4 4 4 3 3 6 5 3 6 3 1 2 2 2 3 4 4 2 1 3 4 3 3 3 4 4 4 3 3 4 3 2 2
5 10 8 5 5 5 4 5 4 4 4 5 5 5 1 1 1 3 3 4 2 2 2 3 2 2 3 4 4 4 4 4 4 4 4 4 4 4 3 2 1 2 2
4 5 7 5 5 4 4 4 4 4 5 6 5 3 4 3 2 3 3 4 2 4 4 4 5 5 4 4 4 4 4 4 4 4 4 3 3 3 2 2 2 1 1
4 5 5 5 5 4 5 3 3 2 4 4 2 1 2 3 3 5 4 3 3 4 4 5 5 4 4 4 4 4 4 4 4 4 4 4 3 3 1 1 2 1 1
5 5 6 5 3 4 4 4 4 3 3 3 1 1 1 3 5 5 5 5 5 5 4 6 6 5 4 4 3 2 4 4 4 4 4 4 3 2 2 2 1 1 1
4 5 7 2 2 3 3 4 6 7 3 2 2 4 6 7 9 8 3 3 5 5 5 5 5 6 5 4 3 4 4 4 4 4 6 4 3 2 1 1 1 3 3
4 5 3 2 2 2 3 5 8 10 10 10 11 9 8 6 2 3 4 5 5 5 6 5 4 6 6 6 5 5 3 4 6 4 3 2 2 3 3 2 2 2 1
5 3 4 3 3 4 3 4 5 4 5 5 5 4 3 3 4 4 5 6 5 5 6 4 5 7 7 5 5 4 4 6 6 5 2 3 4 4 3 3 5 2 1
Wind_Direction
220 231 223 214 213 207 199 198 202 209 218 214 221 217 210 212 213 198 207 208 213 209 207 199 203 193 194 199 171 187 168 152 183 275 212 249 280 3 318 338 50 59 349
220 200 218 226 211 221 216 209 191 212 205 214 207 213 216 215 207 206 215 208 210 211 210 207 218 189 206 204 184 193 188 178 154 196 257 274 270 241 285 46 28 28 349
216 234 247 219 202 221 217 206 214 224 228 232 222 218 214 215 213 216 215 211 210 218 213 210 213 198 211 201 194 194 178 159 165 144 237 216 247 242 273 21 21 339 322
187 206 232 241 200 209 220 224 231 215 217 225 234 239 233 226 226 215 212 218 227 223 216 224 218 206 205 192 198 205 174 157 167 189 221 246 231 246 69 141 318 317 310
226 214 245 255 267 244 233 233 226 214 215 219 221 233 235 227 229 215 219 229 229 235 221 216 220 222 190 188 201 200 170 192 190 208 207 205 233 207 198 194 189 305 290
239 218 225 265 281 264 258 249 230 223 218 213 210 213 225 229 233 230 230 229 235 232 235 229 217 215 200 193 189 180 178 198 211 187 200 216 228 209 189 184 186 110 333
257 223 221 228 261 268 256 238 252 255 263 249 251 234 237 228 223 231 230 239 245 237 237 229 215 216 194 188 192 218 234 229 209 178 201 215 221 199 189 174 198 185 212
42 149 234 222 298 299 293 274 295 288 265 270 269 263 254 254 235 233 234 229 238 247 240 221 207 200 191 184 182 204 220 221 222 213 213 230 212 207 190 175 181 185 265
28 22 20 15 356 344 345 332 304 285 282 274 268 272 254 261 255 240 211 242 247 248 231 216 204 202 186 164 185 201 226 240 217 230 217 223 220 214 173 129 178 166 276
27 63 90 91 49 355 343 326 297 294 295 292 284 263 256 263 271 266 232 209 248 254 237 227 205 186 172 179 194 205 224 235 224 239 231 291 245 206 181 192 152 174 168
80 307 343 16 90 153 274 316 307 314 306 291 280 277 264 237 250 235 225 225 217 230 219 203 195 183 181 186 192 204 221 199 236 224 189 228 257 194 204 212 197 168 171
261 274 285 294 279 262 260 278 281 271 269 277 287 294 273 251 232 254 230 218 227 226 212 199 198 182 195 207 198 219 235 221 203 195 201 227 247 247 234 222 215 217 215
312 312 311 311 304 300 304 290 289 299 315 297 283 283 286 285 233 226 218 245 234 240 206 194 180 183 190 202 209 224 201 189 193 194 220 226 199 223 258 265 174 198 232
288 292 305 309 299 299 297 274 259 263 263 267 285 281 280 268 238 226 207 189 231 225 206 194 163 143 148 219 229 210 190 198 195 204 212 232 222 216 198 173 287 97 146
263 278 282 267 286 288 278 270 280 256 223 248 238 251 281 284 248 214 200 191 188 202 170 169 152 157 168 239 260 241 222 202 206 207 206 208 214 207 226 171 171 152 145
257 270 262 283 287 283 288 302 252 236 225 252 248 244 260 249 270 228 217 212 200 163 186 170 164 196 217 219 244 257 226 223 219 199 211 208 209 204 196 133 100 65 123
227 255 267 272 273 275 281 280 294 300 238 256 258 272 258 265 299 253 208 196 208 158 169 152 184 207 232 242 247 241 243 194 166 182 187 196 174 141 122 121 97 136 131
248 255 253 262 260 270 269 272 266 268 297 316 300 270 286 303 297 265 124 115 124 75 126 185 217 229 230 238 228 168 136 107 92 103 104 125 146 154 145 131 157 177 216
272 273 270 266 262 256 266 267 261 261 256 263 285 267 282 40 77 98 184 98 174 160 198 217 224 215 224 216 144 107 108 94 93 94 78 83 81 93 62 60 47 290 216
282 266 262 273 277 285 279 276 285 269 277 281 270 263 252 59 223 142 194 117 138 106 243 241 209 140 103 97 88 96 95 90 95 91 90 86 74 78 95 112 140 236 239
297 294 278 294 284 275 275 263 264 263 267 277 268 269 197 199 211 144 127 114 74 42 72 79 79 84 86 92 96 93 95 104 106 107 103 97 101 106 122 182 201 219 82
283 275 290 278 281 258 231 272 291 314 283 287 263 328 163 223 145 122 88 58 82 97 79 98 85 79 88 104 111 115 135 132 124 117 114 116 114 111 145 133 84 80 101
272 285 290 288 264 297 348 347 311 319 295 286 263 104 118 97 93 87 77 97 108 103 97 96 97 87 74 75 70 116 140 150 154 139 134 120 125 141 115 86 42 51 103
274 272 276 283 348 8 357 303 360 351 348 50 100 97 81 78 71 47 34 93 102 89 77 89 94 106 102 87 69 61 83 109 126 136 121 128 131 96 50 350 293 263 264
272 263 272 103 110 70 37 38 32 41 53 63 70 74 80 102 152 337 120 96 94 96 87 88 90 109 107 100 95 97 107 93 95 98 120 145 63 30 353 334 348 359 290
266 248 108 129 127 92 71 65 46 35 42 62 71 49 26 350 328 106 111 102 100 91 100 96 99 98 90 85 97 106 88 79 79 68 50 36 28 9 358 323 313 298 285